Location: Finney State Fishing Lake and Wildlife Area
(38.1834°N, 100.3310°W)
Time: 08:42:15
(UTC+00:00)

Tiangong - Visible Passes

Search period start: 28 November 2022 00:00
Search period end: 08 December 2022 00:00
Orbit: 385 x 394 km, 41.5° (Epoch: 28 November)

Date Brightness Start Highest point End Pass type
(mag) Time Alt. Az. Time Alt. Az. Time Alt. Az.
28 Nov 0.2 00:27:41 10° S 00:29:14 13° SE 00:30:06 12° SE visible
29 Nov -1.1 01:04:48 10° SW 01:07:21 38° S 01:07:21 38° S visible
30 Nov -0.5 00:07:17 10° SSW 00:09:56 24° SSE 00:12:12 12° E visible
30 Nov 0.7 01:43:30 10° WSW 01:44:32 19° W 01:44:32 19° W visible
01 Dec -2.2 00:45:30 10° WSW 00:48:40 75° SSE 00:49:21 51° E visible
01 Dec -1.4 23:47:39 10° SW 23:50:43 45° SSE 23:53:48 10° E visible
02 Dec -0.3 01:24:33 10° W 01:26:26 31° WNW 01:26:26 31° WNW visible
03 Dec -2.0 00:26:26 10° W 00:29:37 69° NNW 00:31:11 27° ENE visible
04 Dec -1.2 01:05:37 10° WNW 01:08:15 41° NNW 01:08:15 41° NNW visible
05 Dec -1.7 00:07:29 10° W 00:10:35 50° N 00:13:00 15° ENE visible
05 Dec 0.9 01:44:42 10° WNW 01:45:19 15° WNW 01:45:19 15° WNW visible
06 Dec -1.6 00:46:39 10° WNW 00:49:43 44° N 00:50:06 41° NNE visible
06 Dec -1.5 23:48:33 10° WNW 23:51:38 43° N 23:54:42 10° ENE visible
07 Dec -0.1 01:25:38 10° WNW 01:27:15 27° WNW 01:27:15 27° WNW visible
